GFSWCAN_prec_precacc_060.txt.gz
Total_Precipitation_Accumulation
1.04 0.77 0.55 0.50 0.44 0.40 0.30 0.26 0.30 0.27 0.24 0.22 0.13 0.12 0.08 0.08 0.16 0.26 0.31 0.69 0.81 0.50 0.14 0.12 0.05 0.00 0.00 0.01 0.13 0.14 0.03 0.08 0.18 0.27 0.14 0.07 0.02 0.00 0.00 0.00 0.00 0.00 0.01 0.01 0.02 0.05 0.01 0.00 0.01 0.06 0.05 0.02 0.04 0.02
1.12 0.87 0.56 0.50 0.45 0.33 0.22 0.20 0.26 0.22 0.19 0.19 0.13 0.13 0.10 0.09 0.17 0.25 0.35 0.71 0.73 0.82 0.25 0.08 0.06 0.02 0.00 0.01 0.03 0.13 0.04 0.01 0.07 0.12 0.12 0.09 0.05 0.02 0.00 0.01 0.00 0.00 0.00 0.00 0.02 0.01 0.00 0.00 0.01 0.01 0.02 0.03 0.01 0.02
0.96 0.74 0.62 0.54 0.34 0.20 0.14 0.15 0.21 0.17 0.15 0.17 0.14 0.15 0.13 0.11 0.18 0.22 0.33 0.65 1.04 0.57 0.73 0.17 0.12 0.06 0.02 0.02 0.03 0.07 0.04 0.04 0.04 0.07 0.15 0.12 0.15 0.07 0.04 0.02 0.00 0.02 0.00 0.00 0.01 0.00 0.00 0.01 0.01 0.00 0.01 0.05 0.07 0.13
0.81 0.68 0.61 0.58 0.28 0.14 0.09 0.13 0.20 0.19 0.19 0.16 0.17 0.15 0.15 0.12 0.18 0.23 0.36 0.67 1.36 0.92 0.95 0.43 0.08 0.06 0.07 0.05 0.04 0.05 0.05 0.05 0.13 0.16 0.19 0.17 0.19 0.09 0.08 0.04 0.04 0.04 0.04 0.02 0.03 0.01 0.01 0.02 0.03 0.08 0.18 0.26 0.24 0.18
0.63 0.65 0.71 0.57 0.36 0.20 0.13 0.16 0.26 0.28 0.27 0.19 0.21 0.16 0.16 0.14 0.26 0.32 0.50 0.67 1.00 1.08 0.74 0.54 0.28 0.04 0.08 0.09 0.11 0.05 0.05 0.10 0.17 0.18 0.13 0.05 0.02 0.02 0.03 0.04 0.09 0.03 0.01 0.04 0.04 0.05 0.10 0.12 0.23 0.42 0.32 0.21 0.21 0.15
0.60 0.57 0.58 0.54 0.40 0.36 0.29 0.31 0.32 0.30 0.23 0.18 0.18 0.19 0.19 0.29 0.50 0.68 0.85 0.60 0.52 0.78 1.11 0.70 0.39 0.12 0.15 0.23 0.19 0.33 0.12 0.19 0.19 0.12 0.05 0.02 0.01 0.05 0.09 0.05 0.01 0.00 0.00 0.04 0.06 0.05 0.15 0.27 0.25 0.14 0.13 0.10 0.05 0.01
0.57 0.49 0.47 0.51 0.44 0.53 0.60 0.52 0.44 0.28 0.31 0.23 0.25 0.30 0.33 0.69 0.89 1.20 0.84 0.63 0.40 0.73 1.13 0.84 0.44 0.15 0.22 0.25 0.18 0.48 0.32 0.36 0.28 0.18 0.09 0.05 0.04 0.19 0.24 0.10 0.01 0.00 0.02 0.02 0.03 0.09 0.13 0.13 0.11 0.06 0.02 0.00 0.00 0.00
0.61 0.47 0.40 0.46 0.41 0.42 0.58 0.66 0.51 0.42 0.42 0.33 0.37 0.42 0.72 1.56 1.42 1.04 0.70 1.01 0.84 0.82 0.92 0.84 0.44 0.29 0.21 0.36 0.21 0.15 0.26 0.44 0.31 0.26 0.17 0.12 0.11 0.16 0.22 0.04 0.00 0.00 0.00 0.01 0.01 0.03 0.08 0.06 0.01 0.00 0.00 0.00 0.01 0.06
0.38 0.29 0.32 0.37 0.31 0.29 0.30 0.46 0.59 0.60 0.62 0.67 0.77 0.91 1.43 1.70 1.18 0.85 1.04 1.62 1.46 1.51 1.23 0.51 0.23 0.29 0.24 0.38 0.42 0.28 0.14 0.24 0.48 0.37 0.26 0.18 0.18 0.18 0.06 0.00 0.00 0.01 0.01 0.01 0.00 0.00 0.00 0.01 0.01 0.01 0.02 0.06 0.13 0.13
0.31 0.26 0.31 0.31 0.23 0.17 0.18 0.28 0.53 0.78 1.20 1.62 1.67 1.75 1.84 1.53 1.22 0.94 1.25 1.53 1.56 1.28 0.89 0.40 0.16 0.16 0.22 0.30 0.51 0.42 0.40 0.21 0.23 0.20 0.26 0.28 0.20 0.12 0.08 0.09 0.08 0.05 0.02 0.01 0.02 0.02 0.02 0.02 0.02 0.06 0.12 0.13 0.09 0.04
0.37 0.34 0.28 0.23 0.18 0.13 0.13 0.19 0.42 0.95 1.86 2.34 2.44 1.90 1.43 1.44 1.19 1.20 1.31 1.05 0.79 0.47 0.31 0.22 0.18 0.12 0.15 0.37 0.55 0.57 0.43 0.29 0.19 0.08 0.14 0.15 0.08 0.04 0.04 0.04 0.08 0.12 0.09 0.04 0.01 0.02 0.05 0.14 0.23 0.18 0.08 0.02 0.00 0.00
0.46 0.37 0.26 0.20 0.19 0.19 0.16 0.24 0.47 0.77 1.41 1.88 1.54 1.28 1.53 1.59 1.38 1.25 1.09 0.63 0.31 0.12 0.06 0.08 0.10 0.13 0.29 0.36 0.58 0.76 0.42 0.21 0.15 0.06 0.13 0.09 0.02 0.03 0.03 0.03 0.04 0.02 0.02 0.05 0.11 0.18 0.20 0.15 0.07 0.05 0.06 0.05 0.02 0.00
0.51 0.34 0.24 0.21 0.16 0.19 0.18 0.24 0.45 0.79 1.09 1.19 1.25 1.89 1.88 1.86 1.53 1.08 0.51 0.24 0.12 0.05 0.05 0.08 0.11 0.17 0.25 0.29 0.55 0.51 0.44 0.29 0.10 0.11 0.09 0.05 0.03 0.07 0.09 0.07 0.05 0.04 0.06 0.11 0.09 0.05 0.06 0.08 0.09 0.08 0.04 0.00 0.00 0.00
0.47 0.36 0.28 0.28 0.24 0.28 0.36 0.54 0.77 0.86 0.72 0.88 1.33 1.59 1.28 1.15 0.69 0.40 0.15 0.05 0.05 0.05 0.07 0.08 0.13 0.14 0.21 0.31 0.43 0.49 0.51 0.26 0.30 0.15 0.06 0.15 0.26 0.17 0.03 0.00 0.01 0.01 0.02 0.03 0.04 0.06 0.06 0.03 0.01 0.00 0.00 0.00 0.00 0.00
0.42 0.38 0.37 0.51 0.43 0.30 0.40 0.55 0.65 0.48 0.39 0.56 0.60 0.67 0.56 0.43 0.30 0.17 0.13 0.10 0.10 0.12 0.21 0.32 0.42 0.31 0.30 0.49 0.43 0.34 0.32 0.27 0.21 0.26 0.30 0.27 0.17 0.03 0.01 0.05 0.02 0.01 0.01 0.01 0.00 0.00 0.00 0.00 0.00 0.00 0.00 0.00 0.00 0.00
0.37 0.34 0.49 0.49 0.35 0.32 0.47 0.44 0.50 0.34 0.29 0.18 0.25 0.21 0.20 0.18 0.24 0.24 0.21 0.18 0.18 0.24 0.24 0.28 0.37 0.41 0.48 0.37 0.29 0.27 0.30 0.31 0.32 0.16 0.07 0.04 0.04 0.05 0.09 0.06 0.01 0.01 0.01 0.03 0.05 0.03 0.02 0.00 0.00 0.00 0.00 0.00 0.01 0.01
0.41 0.32 0.36 0.35 0.38 0.38 0.30 0.40 0.29 0.21 0.22 0.13 0.18 0.14 0.10 0.11 0.13 0.12 0.09 0.09 0.08 0.15 0.15 0.11 0.13 0.20 0.21 0.21 0.21 0.21 0.28 0.18 0.08 0.04 0.02 0.01 0.01 0.03 0.08 0.09 0.05 0.07 0.08 0.06 0.05 0.03 0.00 0.00 0.00 0.00 0.01 0.01 0.01 0.00
0.48 0.21 0.22 0.24 0.21 0.21 0.22 0.19 0.15 0.12 0.16 0.21 0.23 0.32 0.18 0.16 0.13 0.11 0.05 0.02 0.01 0.01 0.01 0.03 0.03 0.04 0.09 0.11 0.20 0.22 0.12 0.10 0.08 0.09 0.09 0.10 0.12 0.14 0.12 0.06 0.06 0.05 0.03 0.03 0.01 0.01 0.00 0.00 0.01 0.01 0.01 0.01 0.01 0.01
0.34 0.18 0.17 0.16 0.14 0.17 0.31 0.20 0.06 0.05 0.23 0.31 0.36 0.37 0.26 0.31 0.32 0.29 0.16 0.08 0.01 0.00 0.01 0.02 0.04 0.07 0.12 0.18 0.23 0.21 0.18 0.17 0.19 0.23 0.25 0.22 0.18 0.14 0.12 0.07 0.05 0.03 0.01 0.01 0.00 0.01 0.01 0.02 0.01 0.00 0.00 0.01 0.04 0.04
0.48 0.48 0.32 0.31 0.16 0.14 0.15 0.08 0.01 0.05 0.20 0.27 0.31 0.24 0.19 0.31 0.27 0.20 0.12 0.07 0.05 0.06 0.14 0.16 0.22 0.26 0.28 0.32 0.32 0.29 0.24 0.20 0.13 0.12 0.20 0.27 0.26 0.17 0.15 0.08 0.06 0.04 0.01 0.02 0.04 0.04 0.02 0.02 0.02 0.02 0.06 0.11 0.15 0.10
0.56 0.82 0.60 0.28 0.34 0.16 0.10 0.08 0.10 0.11 0.16 0.21 0.26 0.10 0.21 0.13 0.07 0.04 0.02 0.01 0.03 0.12 0.20 0.31 0.33 0.31 0.32 0.36 0.33 0.26 0.21 0.16 0.13 0.08 0.09 0.14 0.18 0.10 0.10 0.11 0.08 0.07 0.07 0.07 0.06 0.06 0.07 0.08 0.08 0.08 0.09 0.12 0.15 0.18
0.46 0.52 0.61 0.36 0.25 0.14 0.13 0.13 0.10 0.10 0.10 0.19 0.16 0.09 0.12 0.11 0.06 0.04 0.01 0.04 0.14 0.30 0.30 0.28 0.27 0.23 0.19 0.22 0.26 0.23 0.24 0.12 0.08 0.08 0.08 0.06 0.06 0.08 0.11 0.13 0.10 0.11 0.12 0.13 0.12 0.12 0.11 0.10 0.11 0.12 0.10 0.09 0.11 0.14
0.33 0.45 0.57 0.45 0.24 0.09 0.11 0.06 0.07 0.13 0.12 0.14 0.10 0.07 0.09 0.10 0.09 0.03 0.07 0.11 0.20 0.31 0.31 0.21 0.18 0.15 0.14 0.15 0.10 0.12 0.18 0.14 0.14 0.17 0.17 0.17 0.17 0.17 0.16 0.16 0.16 0.14 0.14 0.13 0.13 0.12 0.12 0.13 0.12 0.11 0.11 0.13 0.12 0.10
0.34 0.42 0.46 0.40 0.21 0.13 0.06 0.07 0.07 0.12 0.10 0.09 0.08 0.09 0.10 0.06 0.03 0.04 0.08 0.15 0.22 0.15 0.12 0.17 0.18 0.18 0.15 0.11 0.11 0.15 0.20 0.16 0.16 0.17 0.23 0.18 0.12 0.15 0.13 0.13 0.11 0.12 0.12 0.10 0.07 0.10 0.11 0.12 0.12 0.15 0.18 0.17 0.11 0.11
0.61 0.43 0.29 0.23 0.08 0.04 0.05 0.05 0.05 0.04 0.06 0.06 0.08 0.09 0.06 0.03 0.04 0.05 0.08 0.20 0.14 0.13 0.15 0.17 0.14 0.15 0.16 0.19 0.18 0.17 0.16 0.15 0.10 0.11 0.16 0.12 0.12 0.10 0.08 0.06 0.06 0.06 0.04 0.06 0.12 0.16 0.14 0.15 0.16 0.14 0.09 0.08 0.10 0.11
0.36 0.22 0.16 0.11 0.05 0.04 0.04 0.03 0.04 0.04 0.04 0.08 0.09 0.07 0.05 0.06 0.04 0.08 0.13 0.20 0.16 0.17 0.18 0.18 0.17 0.13 0.13 0.14 0.14 0.13 0.14 0.12 0.07 0.06 0.08 0.06 0.08 0.08 0.07 0.06 0.05 0.05 0.05 0.10 0.18 0.17 0.11 0.06 0.06 0.06 0.07 0.08 0.13 0.16
0.19 0.11 0.05 0.05 0.09 0.11 0.10 0.06 0.07 0.10 0.12 0.14 0.11 0.10 0.14 0.12 0.09 0.15 0.16 0.17 0.17 0.22 0.18 0.16 0.13 0.12 0.13 0.12 0.09 0.08 0.04 0.02 0.02 0.03 0.02 0.03 0.04 0.07 0.16 0.23 0.21 0.17 0.10 0.12 0.15 0.17 0.18 0.15 0.13 0.12 0.13 0.11 0.11 0.21
0.07 0.03 0.05 0.08 0.13 0.15 0.15 0.13 0.15 0.17 0.18 0.18 0.18 0.16 0.19 0.15 0.18 0.22 0.23 0.25 0.19 0.13 0.08 0.06 0.05 0.04 0.05 0.06 0.05 0.04 0.02 0.01 0.02 0.02 0.02 0.07 0.09 0.11 0.11 0.12 0.13 0.11 0.10 0.11 0.13 0.16 0.19 0.22 0.20 0.18 0.18 0.19 0.19 0.18
0.10 0.11 0.11 0.14 0.13 0.14 0.18 0.19 0.21 0.21 0.21 0.21 0.16 0.15 0.15 0.15 0.24 0.24 0.23 0.18 0.13 0.07 0.05 0.06 0.08 0.04 0.03 0.01 0.01 0.04 0.06 0.07 0.06 0.04 0.03 0.05 0.13 0.13 0.10 0.09 0.09 0.10 0.09 0.08 0.09 0.15 0.19 0.22 0.20 0.19 0.24 0.27 0.21 0.24
0.07 0.08 0.08 0.04 0.07 0.11 0.13 0.10 0.11 0.08 0.06 0.06 0.05 0.07 0.07 0.14 0.24 0.18 0.12 0.09 0.06 0.08 0.08 0.07 0.07 0.05 0.05 0.05 0.04 0.05 0.11 0.09 0.11 0.17 0.16 0.13 0.12 0.11 0.08 0.09 0.08 0.08 0.09 0.11 0.10 0.07 0.11 0.14 0.15 0.22 0.25 0.22 0.27 0.32
0.03 0.04 0.03 0.04 0.07 0.09 0.07 0.06 0.08 0.07 0.04 0.02 0.02 0.05 0.10 0.12 0.15 0.10 0.09 0.12 0.07 0.06 0.05 0.03 0.04 0.07 0.07 0.08 0.10 0.11 0.14 0.15 0.14 0.15 0.15 0.14 0.12 0.11 0.09 0.07 0.07 0.08 0.08 0.11 0.10 0.10 0.13 0.16 0.21 0.25 0.24 0.22 0.22 0.21
0.03 0.04 0.04 0.05 0.08 0.08 0.10 0.14 0.12 0.09 0.06 0.04 0.06 0.04 0.08 0.07 0.10 0.16 0.12 0.09 0.05 0.05 0.08 0.10 0.11 0.14 0.18 0.18 0.19 0.19 0.17 0.16 0.13 0.13 0.13 0.13 0.12 0.10 0.07 0.06 0.07 0.08 0.08 0.08 0.08 0.11 0.12 0.13 0.15 0.13 0.14 0.12 0.12 0.12
0.03 0.04 0.05 0.05 0.05 0.05 0.04 0.08 0.05 0.04 0.04 0.05 0.08 0.08 0.08 0.12 0.24 0.27 0.16 0.12 0.15 0.16 0.18 0.20 0.21 0.23 0.25 0.21 0.19 0.17 0.14 0.12 0.11 0.10 0.09 0.08 0.06 0.05 0.04 0.05 0.07 0.08 0.09 0.09 0.09 0.10 0.09 0.08 0.09 0.10 0.11 0.11 0.10 0.09

GFSWCAN_prec_precacc_063.txt.gz
Total_Precipitation_Accumulation
1.05 0.77 0.56 0.57 0.54 0.45 0.34 0.31 0.39 0.38 0.40 0.38 0.24 0.21 0.11 0.10 0.18 0.26 0.33 0.73 0.87 0.57 0.17 0.17 0.07 0.00 0.00 0.01 0.13 0.14 0.03 0.08 0.18 0.27 0.14 0.07 0.02 0.00 0.00 0.01 0.01 0.00 0.01 0.01 0.02 0.05 0.01 0.00 0.01 0.06 0.05 0.02 0.04 0.02
1.13 0.88 0.56 0.51 0.47 0.37 0.30 0.30 0.36 0.35 0.35 0.32 0.24 0.19 0.12 0.11 0.19 0.25 0.36 0.76 0.80 0.94 0.30 0.13 0.10 0.02 0.00 0.01 0.03 0.13 0.04 0.01 0.07 0.12 0.12 0.09 0.05 0.02 0.00 0.01 0.01 0.01 0.01 0.00 0.02 0.01 0.00 0.00 0.01 0.01 0.02 0.03 0.01 0.02
1.03 0.81 0.69 0.60 0.43 0.36 0.29 0.28 0.36 0.33 0.31 0.28 0.21 0.17 0.14 0.13 0.20 0.22 0.34 0.72 1.21 0.69 0.78 0.23 0.17 0.08 0.02 0.02 0.03 0.07 0.04 0.04 0.04 0.07 0.15 0.12 0.15 0.07 0.04 0.02 0.01 0.03 0.01 0.01 0.02 0.00 0.00 0.01 0.01 0.00 0.01 0.05 0.07 0.13
0.87 0.78 0.74 0.72 0.47 0.33 0.24 0.28 0.35 0.33 0.30 0.22 0.20 0.17 0.17 0.14 0.19 0.23 0.36 0.78 1.60 1.01 1.06 0.51 0.12 0.10 0.11 0.05 0.04 0.05 0.05 0.05 0.13 0.17 0.19 0.17 0.19 0.09 0.08 0.04 0.04 0.05 0.06 0.04 0.03 0.01 0.01 0.02 0.03 0.08 0.18 0.26 0.24 0.18
0.66 0.69 0.78 0.65 0.45 0.29 0.22 0.25 0.35 0.35 0.32 0.21 0.22 0.18 0.18 0.16 0.26 0.32 0.50 0.76 1.22 1.19 0.84 0.65 0.34 0.08 0.15 0.15 0.15 0.08 0.06 0.10 0.17 0.19 0.14 0.05 0.02 0.02 0.03 0.04 0.09 0.03 0.01 0.04 0.04 0.05 0.11 0.12 0.23 0.42 0.32 0.21 0.21 0.15
0.61 0.58 0.60 0.55 0.42 0.38 0.31 0.33 0.35 0.32 0.25 0.18 0.19 0.22 0.23 0.31 0.52 0.69 0.88 0.66 0.70 0.92 1.25 0.79 0.44 0.15 0.22 0.31 0.25 0.38 0.15 0.20 0.19 0.12 0.05 0.02 0.01 0.05 0.09 0.05 0.01 0.00 0.00 0.04 0.06 0.05 0.15 0.27 0.25 0.14 0.13 0.10 0.05 0.01
0.58 0.49 0.47 0.51 0.45 0.53 0.60 0.52 0.44 0.29 0.31 0.23 0.25 0.32 0.35 0.73 0.90 1.22 0.90 0.65 0.47 0.79 1.25 0.94 0.47 0.17 0.27 0.33 0.22 0.51 0.34 0.38 0.29 0.18 0.09 0.05 0.04 0.19 0.24 0.10 0.01 0.00 0.02 0.02 0.03 0.09 0.13 0.13 0.11 0.06 0.02 0.00 0.00 0.00
0.61 0.47 0.40 0.46 0.41 0.42 0.58 0.66 0.51 0.42 0.42 0.33 0.39 0.45 0.75 1.60 1.45 1.12 0.74 1.03 0.85 0.84 1.00 0.95 0.46 0.30 0.24 0.39 0.24 0.20 0.29 0.46 0.33 0.27 0.17 0.12 0.11 0.16 0.22 0.04 0.00 0.00 0.00 0.01 0.01 0.03 0.08 0.06 0.01 0.00 0.00 0.00 0.01 0.06
0.38 0.30 0.32 0.38 0.32 0.29 0.31 0.46 0.59 0.61 0.63 0.70 0.81 1.03 1.55 1.83 1.31 0.94 1.08 1.67 1.48 1.52 1.26 0.54 0.24 0.30 0.25 0.38 0.43 0.31 0.20 0.30 0.50 0.38 0.26 0.18 0.18 0.19 0.06 0.00 0.00 0.01 0.01 0.01 0.00 0.00 0.00 0.01 0.01 0.01 0.02 0.06 0.13 0.13
0.32 0.28 0.33 0.32 0.23 0.17 0.18 0.29 0.55 0.83 1.38 1.83 1.99 2.02 2.09 1.65 1.31 1.06 1.45 1.73 1.65 1.30 0.89 0.40 0.16 0.16 0.22 0.30 0.52 0.52 0.65 0.35 0.26 0.20 0.26 0.28 0.20 0.12 0.08 0.09 0.08 0.05 0.02 0.02 0.02 0.02 0.02 0.02 0.02 0.06 0.12 0.13 0.09 0.04
0.38 0.36 0.30 0.24 0.19 0.14 0.13 0.21 0.54 1.20 2.09 2.57 2.56 1.96 1.57 1.60 1.30 1.34 1.45 1.15 0.86 0.47 0.31 0.22 0.18 0.12 0.15 0.37 0.56 0.62 0.67 0.63 0.36 0.11 0.14 0.15 0.08 0.04 0.04 0.05 0.09 0.13 0.12 0.08 0.06 0.06 0.07 0.15 0.24 0.19 0.09 0.04 0.03 0.03
0.46 0.37 0.26 0.21 0.20 0.22 0.24 0.44 0.69 0.88 1.46 1.88 1.55 1.38 1.71 1.63 1.43 1.29 1.11 0.65 0.31 0.12 0.06 0.08 0.10 0.13 0.29 0.36 0.58 0.82 0.58 0.48 0.35 0.09 0.16 0.10 0.02 0.03 0.03 0.05 0.07 0.04 0.03 0.06 0.13 0.20 0.24 0.19 0.09 0.06 0.07 0.11 0.16 0.19
0.51 0.34 0.24 0.22 0.21 0.31 0.34 0.37 0.47 0.80 1.10 1.19 1.26 1.90 1.94 1.94 1.54 1.09 0.51 0.25 0.12 0.05 0.05 0.08 0.11 0.17 0.25 0.29 0.56 0.65 0.70 0.54 0.25 0.18 0.12 0.06 0.04 0.08 0.10 0.07 0.05 0.04 0.06 0.11 0.09 0.05 0.06 0.08 0.12 0.14 0.15 0.13 0.09 0.07
0.47 0.36 0.28 0.29 0.26 0.29 0.36 0.54 0.78 0.88 0.74 0.93 1.43 1.63 1.35 1.16 0.69 0.40 0.15 0.05 0.05 0.05 0.07 0.08 0.13 0.14 0.21 0.31 0.45 0.56 0.61 0.36 0.37 0.21 0.09 0.16 0.27 0.18 0.03 0.00 0.01 0.01 0.02 0.03 0.05 0.07 0.10 0.11 0.12 0.10 0.07 0.04 0.02 0.01
0.42 0.39 0.38 0.51 0.44 0.30 0.40 0.55 0.69 0.55 0.49 0.75 0.70 0.71 0.60 0.44 0.31 0.17 0.13 0.10 0.11 0.14 0.24 0.36 0.45 0.32 0.31 0.53 0.49 0.37 0.33 0.28 0.22 0.27 0.30 0.28 0.19 0.04 0.02 0.06 0.03 0.04 0.05 0.05 0.05 0.04 0.04 0.03 0.02 0.03 0.02 0.01 0.00 0.00
0.37 0.34 0.50 0.50 0.35 0.32 0.47 0.47 0.59 0.46 0.42 0.30 0.37 0.30 0.26 0.21 0.26 0.26 0.23 0.23 0.24 0.30 0.38 0.45 0.49 0.46 0.54 0.40 0.31 0.30 0.31 0.32 0.33 0.17 0.09 0.07 0.06 0.08 0.14 0.12 0.08 0.07 0.07 0.09 0.12 0.10 0.08 0.05 0.03 0.01 0.00 0.00 0.01 0.01
0.42 0.34 0.38 0.36 0.39 0.40 0.33 0.47 0.39 0.32 0.38 0.27 0.33 0.25 0.21 0.19 0.22 0.21 0.16 0.18 0.14 0.19 0.24 0.19 0.17 0.24 0.24 0.22 0.23 0.23 0.31 0.21 0.12 0.08 0.07 0.07 0.06 0.08 0.14 0.14 0.09 0.09 0.11 0.11 0.09 0.08 0.04 0.02 0.00 0.00 0.01 0.01 0.01 0.00
0.52 0.25 0.25 0.28 0.26 0.29 0.32 0.31 0.23 0.21 0.28 0.33 0.32 0.45 0.27 0.23 0.20 0.17 0.11 0.05 0.02 0.01 0.02 0.03 0.04 0.05 0.10 0.12 0.22 0.27 0.20 0.19 0.17 0.16 0.16 0.17 0.19 0.22 0.19 0.08 0.10 0.09 0.08 0.08 0.05 0.03 0.01 0.00 0.01 0.01 0.01 0.01 0.01 0.01
0.49 0.28 0.27 0.24 0.20 0.26 0.40 0.27 0.07 0.09 0.28 0.36 0.41 0.41 0.28 0.32 0.36 0.33 0.20 0.10 0.02 0.00 0.01 0.02 0.04 0.08 0.14 0.20 0.27 0.26 0.27 0.26 0.27 0.30 0.33 0.32 0.29 0.22 0.17 0.10 0.08 0.06 0.05 0.05 0.03 0.03 0.03 0.03 0.02 0.01 0.00 0.01 0.04 0.04
0.80 0.76 0.53 0.49 0.33 0.31 0.19 0.12 0.02 0.05 0.22 0.29 0.34 0.26 0.21 0.35 0.30 0.23 0.14 0.09 0.06 0.07 0.15 0.17 0.24 0.30 0.32 0.37 0.39 0.37 0.34 0.29 0.20 0.16 0.26 0.35 0.37 0.24 0.21 0.12 0.09 0.06 0.03 0.03 0.05 0.04 0.03 0.03 0.03 0.03 0.07 0.12 0.16 0.12
0.77 1.08 0.85 0.52 0.56 0.32 0.16 0.12 0.12 0.13 0.19 0.23 0.29 0.10 0.23 0.15 0.08 0.05 0.03 0.01 0.04 0.15 0.24 0.36 0.38 0.37 0.39 0.44 0.42 0.34 0.29 0.24 0.20 0.13 0.14 0.19 0.26 0.14 0.14 0.14 0.10 0.08 0.07 0.08 0.07 0.07 0.07 0.09 0.09 0.09 0.10 0.13 0.16 0.19
0.48 0.56 0.66 0.43 0.31 0.17 0.17 0.20 0.14 0.15 0.13 0.24 0.20 0.11 0.14 0.13 0.08 0.06 0.02 0.04 0.17 0.35 0.36 0.35 0.34 0.31 0.27 0.31 0.36 0.31 0.33 0.19 0.14 0.13 0.13 0.10 0.10 0.10 0.13 0.16 0.11 0.12 0.13 0.14 0.12 0.12 0.11 0.10 0.12 0.12 0.10 0.09 0.12 0.15
0.33 0.45 0.57 0.45 0.24 0.09 0.14 0.08 0.09 0.17 0.14 0.17 0.13 0.10 0.13 0.13 0.11 0.04 0.08 0.14 0.25 0.38 0.39 0.29 0.26 0.24 0.22 0.25 0.18 0.18 0.26 0.18 0.17 0.21 0.20 0.19 0.19 0.19 0.16 0.17 0.17 0.15 0.14 0.13 0.13 0.13 0.12 0.13 0.12 0.11 0.11 0.13 0.12 0.10
0.34 0.42 0.46 0.40 0.21 0.13 0.06 0.08 0.09 0.14 0.12 0.11 0.09 0.12 0.13 0.08 0.04 0.04 0.10 0.17 0.27 0.20 0.18 0.23 0.25 0.25 0.21 0.16 0.15 0.19 0.26 0.18 0.17 0.19 0.25 0.18 0.12 0.15 0.13 0.13 0.11 0.12 0.12 0.10 0.07 0.10 0.11 0.12 0.12 0.15 0.18 0.17 0.11 0.11
0.61 0.43 0.29 0.23 0.08 0.04 0.05 0.05 0.05 0.05 0.08 0.08 0.09 0.11 0.08 0.04 0.04 0.06 0.10 0.23 0.17 0.17 0.19 0.22 0.18 0.19 0.19 0.22 0.21 0.19 0.18 0.16 0.11 0.11 0.16 0.12 0.12 0.10 0.08 0.06 0.06 0.06 0.04 0.06 0.12 0.16 0.14 0.15 0.16 0.14 0.09 0.08 0.10 0.11
0.36 0.22 0.16 0.11 0.06 0.04 0.04 0.03 0.04 0.05 0.05 0.09 0.10 0.08 0.05 0.06 0.05 0.09 0.15 0.23 0.19 0.20 0.21 0.22 0.19 0.14 0.14 0.15 0.14 0.13 0.14 0.12 0.07 0.06 0.08 0.06 0.08 0.08 0.07 0.06 0.05 0.05 0.05 0.10 0.18 0.17 0.11 0.06 0.06 0.06 0.07 0.08 0.13 0.16
0.19 0.11 0.05 0.06 0.09 0.11 0.10 0.06 0.07 0.10 0.12 0.15 0.11 0.10 0.14 0.12 0.09 0.16 0.17 0.19 0.19 0.24 0.20 0.17 0.13 0.12 0.13 0.12 0.09 0.08 0.04 0.02 0.02 0.03 0.02 0.03 0.04 0.07 0.16 0.23 0.22 0.17 0.10 0.12 0.15 0.17 0.18 0.15 0.13 0.12 0.13 0.11 0.11 0.21
0.07 0.03 0.05 0.08 0.13 0.15 0.15 0.13 0.15 0.18 0.19 0.19 0.18 0.16 0.20 0.15 0.19 0.24 0.25 0.27 0.19 0.14 0.09 0.07 0.05 0.04 0.05 0.06 0.05 0.04 0.02 0.01 0.02 0.02 0.02 0.07 0.09 0.11 0.11 0.12 0.14 0.11 0.10 0.11 0.13 0.16 0.20 0.22 0.20 0.18 0.18 0.19 0.19 0.18
0.10 0.11 0.11 0.14 0.13 0.14 0.18 0.19 0.21 0.22 0.21 0.21 0.16 0.15 0.15 0.16 0.26 0.26 0.25 0.18 0.13 0.07 0.05 0.06 0.08 0.04 0.03 0.01 0.01 0.04 0.06 0.07 0.06 0.04 0.03 0.05 0.13 0.13 0.10 0.09 0.09 0.10 0.09 0.08 0.09 0.15 0.20 0.22 0.20 0.19 0.24 0.27 0.21 0.24
0.07 0.08 0.08 0.04 0.07 0.11 0.13 0.10 0.11 0.09 0.06 0.06 0.05 0.07 0.07 0.16 0.27 0.20 0.13 0.10 0.07 0.08 0.09 0.07 0.07 0.05 0.05 0.05 0.04 0.05 0.11 0.09 0.11 0.17 0.16 0.13 0.12 0.11 0.08 0.09 0.08 0.08 0.09 0.11 0.10 0.07 0.11 0.14 0.15 0.22 0.25 0.22 0.27 0.32
0.03 0.04 0.03 0.04 0.07 0.09 0.07 0.06 0.08 0.07 0.04 0.02 0.02 0.05 0.11 0.13 0.16 0.11 0.09 0.12 0.07 0.07 0.05 0.03 0.04 0.07 0.07 0.08 0.10 0.11 0.14 0.15 0.14 0.15 0.15 0.14 0.12 0.11 0.09 0.07 0.07 0.08 0.08 0.11 0.10 0.10 0.13 0.16 0.21 0.25 0.24 0.22 0.22 0.21
0.03 0.04 0.04 0.05 0.09 0.08 0.11 0.14 0.12 0.09 0.06 0.04 0.06 0.04 0.08 0.07 0.10 0.16 0.13 0.09 0.05 0.05 0.08 0.10 0.11 0.14 0.18 0.18 0.19 0.19 0.17 0.16 0.13 0.13 0.13 0.13 0.12 0.10 0.07 0.06 0.07 0.08 0.08 0.08 0.08 0.11 0.12 0.13 0.15 0.13 0.14 0.12 0.12 0.12
0.03 0.04 0.05 0.05 0.05 0.06 0.05 0.09 0.05 0.05 0.05 0.06 0.09 0.08 0.08 0.12 0.24 0.27 0.17 0.12 0.15 0.16 0.18 0.20 0.21 0.23 0.25 0.21 0.19 0.17 0.14 0.12 0.11 0.10 0.09 0.08 0.06 0.05 0.04 0.05 0.07 0.08 0.09 0.09 0.09 0.10 0.09 0.08 0.09 0.10 0.11 0.11 0.10 0.09

GFSWCAN_prec_precacc_066.txt.gz
Total_Precipitation_Accumulation
1.07 0.79 0.57 0.65 0.75 0.53 0.40 0.36 0.44 0.41 0.41 0.45 0.38 0.46 0.28 0.21 0.25 0.27 0.33 0.73 0.88 0.59 0.20 0.26 0.11 0.03 0.00 0.02 0.14 0.14 0.03 0.08 0.18 0.27 0.14 0.07 0.02 0.00 0.01 0.02 0.01 0.01 0.01 0.01 0.02 0.05 0.01 0.00 0.01 0.06 0.05 0.02 0.04 0.02
1.17 0.88 0.56 0.53 0.62 0.50 0.40 0.35 0.41 0.36 0.36 0.40 0.37 0.37 0.28 0.19 0.24 0.26 0.36 0.77 0.81 0.98 0.33 0.18 0.19 0.04 0.00 0.01 0.03 0.14 0.04 0.01 0.07 0.12 0.12 0.09 0.05 0.02 0.00 0.01 0.01 0.02 0.01 0.00 0.02 0.01 0.00 0.00 0.01 0.01 0.02 0.03 0.01 0.02
1.05 0.82 0.71 0.62 0.47 0.44 0.37 0.31 0.37 0.33 0.34 0.38 0.35 0.34 0.26 0.20 0.25 0.23 0.34 0.73 1.22 0.74 0.82 0.25 0.23 0.17 0.03 0.02 0.03 0.07 0.04 0.04 0.04 0.07 0.15 0.12 0.15 0.07 0.04 0.02 0.01 0.03 0.01 0.01 0.02 0.00 0.00 0.01 0.01 0.00 0.01 0.05 0.07 0.13
0.93 0.82 0.78 0.77 0.51 0.37 0.27 0.30 0.38 0.37 0.36 0.35 0.35 0.32 0.26 0.23 0.30 0.26 0.37 0.79 1.60 1.04 1.15 0.55 0.15 0.20 0.18 0.05 0.04 0.05 0.05 0.05 0.14 0.17 0.19 0.17 0.19 0.09 0.08 0.04 0.04 0.05 0.06 0.04 0.03 0.01 0.02 0.02 0.03 0.09 0.18 0.26 0.24 0.18
0.73 0.78 0.85 0.71 0.50 0.35 0.29 0.32 0.43 0.45 0.44 0.36 0.37 0.32 0.32 0.33 0.36 0.33 0.50 0.76 1.22 1.21 0.89 0.76 0.45 0.14 0.29 0.19 0.15 0.08 0.06 0.11 0.19 0.20 0.14 0.05 0.02 0.02 0.03 0.04 0.09 0.03 0.01 0.04 0.04 0.06 0.11 0.12 0.23 0.42 0.32 0.21 0.21 0.15
0.65 0.64 0.66 0.62 0.49 0.46 0.41 0.45 0.48 0.47 0.38 0.33 0.35 0.36 0.38 0.39 0.53 0.69 0.89 0.67 0.70 0.93 1.38 1.03 0.59 0.24 0.34 0.43 0.30 0.39 0.15 0.20 0.20 0.14 0.06 0.03 0.01 0.05 0.10 0.05 0.01 0.00 0.00 0.04 0.06 0.05 0.15 0.27 0.25 0.14 0.13 0.10 0.05 0.01
0.58 0.51 0.51 0.56 0.50 0.60 0.68 0.61 0.53 0.37 0.40 0.32 0.34 0.39 0.39 0.73 0.90 1.22 0.91 0.66 0.48 0.84 1.36 1.27 0.72 0.30 0.43 0.45 0.32 0.56 0.38 0.39 0.30 0.18 0.10 0.06 0.04 0.19 0.24 0.10 0.01 0.00 0.02 0.02 0.03 0.09 0.13 0.13 0.11 0.06 0.02 0.00 0.00 0.00
0.62 0.47 0.41 0.48 0.46 0.47 0.63 0.70 0.54 0.47 0.46 0.37 0.42 0.46 0.76 1.60 1.45 1.12 0.75 1.03 0.85 0.86 1.09 1.24 0.69 0.52 0.44 0.50 0.32 0.25 0.32 0.49 0.36 0.29 0.17 0.12 0.11 0.16 0.22 0.04 0.00 0.00 0.00 0.01 0.01 0.03 0.08 0.06 0.01 0.00 0.00 0.00 0.01 0.06
0.39 0.30 0.33 0.38 0.33 0.31 0.33 0.48 0.61 0.62 0.63 0.70 0.81 1.03 1.56 1.83 1.31 0.96 1.10 1.68 1.49 1.56 1.36 0.69 0.37 0.58 0.40 0.45 0.47 0.35 0.24 0.34 0.52 0.38 0.26 0.19 0.19 0.19 0.06 0.00 0.00 0.01 0.01 0.01 0.00 0.00 0.00 0.01 0.01 0.01 0.02 0.06 0.13 0.13
0.34 0.30 0.35 0.33 0.24 0.18 0.19 0.29 0.56 0.83 1.38 1.84 2.01 2.05 2.13 1.66 1.35 1.24 1.62 1.84 1.70 1.33 0.98 0.53 0.24 0.36 0.32 0.33 0.55 0.54 0.66 0.37 0.29 0.21 0.26 0.28 0.20 0.12 0.08 0.09 0.08 0.05 0.02 0.02 0.02 0.02 0.02 0.02 0.02 0.06 0.12 0.13 0.09 0.04
0.41 0.38 0.31 0.25 0.19 0.14 0.13 0.22 0.56 1.24 2.13 2.64 2.66 2.07 1.60 1.70 1.59 1.50 1.62 1.32 0.91 0.48 0.32 0.33 0.24 0.19 0.19 0.37 0.56 0.62 0.67 0.63 0.39 0.17 0.16 0.15 0.08 0.04 0.04 0.05 0.09 0.13 0.12 0.08 0.06 0.06 0.08 0.15 0.24 0.19 0.09 0.05 0.04 0.06
0.47 0.38 0.27 0.21 0.21 0.22 0.25 0.46 0.74 0.94 1.55 2.01 1.67 1.46 1.86 1.96 1.66 1.41 1.17 0.79 0.33 0.12 0.06 0.10 0.12 0.14 0.29 0.36 0.58 0.82 0.59 0.49 0.38 0.18 0.27 0.18 0.03 0.03 0.03 0.05 0.07 0.04 0.03 0.06 0.13 0.21 0.24 0.21 0.16 0.16 0.17 0.18 0.22 0.24
0.51 0.35 0.25 0.24 0.26 0.40 0.49 0.51 0.55 0.86 1.16 1.24 1.35 1.99 2.07 1.99 1.63 1.10 0.51 0.25 0.12 0.05 0.05 0.08 0.11 0.17 0.25 0.29 0.56 0.65 0.71 0.59 0.34 0.35 0.27 0.12 0.05 0.09 0.10 0.07 0.05 0.04 0.08 0.14 0.10 0.05 0.06 0.10 0.14 0.18 0.21 0.21 0.18 0.16
0.47 0.39 0.35 0.38 0.35 0.39 0.48 0.61 0.81 0.89 0.75 0.95 1.44 1.64 1.38 1.17 0.70 0.40 0.15 0.05 0.05 0.05 0.07 0.08 0.13 0.14 0.21 0.31 0.45 0.56 0.62 0.40 0.50 0.35 0.22 0.29 0.37 0.22 0.04 0.01 0.01 0.02 0.04 0.04 0.06 0.09 0.12 0.15 0.19 0.19 0.16 0.15 0.11 0.09
0.43 0.40 0.40 0.53 0.45 0.32 0.41 0.56 0.69 0.55 0.49 0.76 0.74 0.77 0.63 0.46 0.32 0.18 0.13 0.10 0.11 0.14 0.24 0.36 0.45 0.32 0.31 0.54 0.49 0.37 0.34 0.31 0.24 0.28 0.31 0.30 0.22 0.08 0.05 0.08 0.05 0.08 0.09 0.09 0.08 0.08 0.08 0.06 0.04 0.07 0.08 0.06 0.03 0.03
0.37 0.35 0.50 0.50 0.35 0.32 0.47 0.47 0.59 0.46 0.44 0.34 0.41 0.36 0.33 0.24 0.29 0.28 0.24 0.24 0.25 0.31 0.41 0.48 0.53 0.50 0.57 0.41 0.32 0.31 0.33 0.35 0.36 0.19 0.11 0.09 0.11 0.14 0.20 0.19 0.15 0.12 0.10 0.12 0.16 0.14 0.12 0.08 0.05 0.03 0.02 0.01 0.01 0.01
0.42 0.35 0.39 0.37 0.40 0.41 0.34 0.48 0.41 0.36 0.42 0.31 0.39 0.31 0.28 0.24 0.26 0.25 0.20 0.23 0.21 0.25 0.35 0.31 0.28 0.30 0.28 0.24 0.24 0.25 0.35 0.27 0.18 0.14 0.13 0.15 0.16 0.19 0.24 0.20 0.12 0.11 0.13 0.13 0.12 0.10 0.05 0.03 0.01 0.00 0.01 0.01 0.01 0.00
0.55 0.26 0.27 0.30 0.27 0.30 0.36 0.36 0.31 0.31 0.34 0.39 0.37 0.55 0.38 0.34 0.32 0.28 0.25 0.24 0.17 0.12 0.12 0.13 0.12 0.10 0.13 0.15 0.25 0.31 0.26 0.28 0.24 0.23 0.23 0.26 0.28 0.31 0.23 0.10 0.12 0.10 0.09 0.11 0.07 0.05 0.02 0.01 0.01 0.01 0.01 0.01 0.01 0.01
0.59 0.33 0.30 0.26 0.22 0.30 0.46 0.36 0.15 0.17 0.36 0.46 0.51 0.52 0.42 0.48 0.51 0.49 0.36 0.25 0.13 0.07 0.07 0.07 0.08 0.12 0.17 0.24 0.31 0.31 0.31 0.31 0.32 0.37 0.40 0.40 0.37 0.27 0.20 0.12 0.10 0.09 0.07 0.07 0.05 0.04 0.04 0.04 0.03 0.01 0.01 0.01 0.04 0.05
1.02 0.93 0.63 0.55 0.36 0.38 0.26 0.18 0.04 0.07 0.26 0.33 0.40 0.33 0.27 0.43 0.37 0.30 0.18 0.11 0.08 0.08 0.15 0.18 0.26 0.32 0.35 0.40 0.42 0.42 0.41 0.35 0.26 0.20 0.32 0.43 0.46 0.29 0.25 0.14 0.11 0.08 0.04 0.04 0.06 0.05 0.04 0.03 0.04 0.04 0.07 0.12 0.16 0.13
0.92 1.25 0.96 0.58 0.60 0.36 0.22 0.18 0.16 0.15 0.20 0.25 0.31 0.11 0.25 0.16 0.08 0.05 0.03 0.01 0.04 0.15 0.26 0.39 0.42 0.41 0.44 0.49 0.47 0.40 0.35 0.30 0.28 0.17 0.18 0.24 0.33 0.17 0.17 0.16 0.11 0.09 0.08 0.09 0.07 0.08 0.07 0.10 0.10 0.09 0.10 0.14 0.16 0.19
0.50 0.59 0.69 0.47 0.34 0.19 0.20 0.24 0.16 0.17 0.15 0.27 0.22 0.12 0.15 0.14 0.09 0.07 0.02 0.05 0.18 0.38 0.41 0.39 0.38 0.34 0.31 0.36 0.43 0.37 0.42 0.27 0.21 0.19 0.19 0.14 0.14 0.13 0.15 0.17 0.12 0.12 0.13 0.14 0.12 0.13 0.12 0.11 0.12 0.12 0.11 0.10 0.12 0.15
0.33 0.45 0.57 0.45 0.24 0.09 0.15 0.09 0.09 0.18 0.15 0.19 0.16 0.11 0.15 0.14 0.13 0.04 0.09 0.16 0.29 0.43 0.44 0.34 0.32 0.30 0.27 0.32 0.24 0.25 0.35 0.24 0.22 0.26 0.25 0.22 0.20 0.20 0.17 0.17 0.17 0.15 0.14 0.14 0.13 0.13 0.12 0.13 0.12 0.11 0.11 0.13 0.12 0.10
0.34 0.42 0.46 0.40 0.21 0.13 0.06 0.08 0.09 0.14 0.12 0.12 0.10 0.13 0.15 0.09 0.04 0.04 0.11 0.20 0.31 0.25 0.22 0.28 0.30 0.30 0.26 0.21 0.20 0.24 0.34 0.23 0.20 0.21 0.27 0.18 0.12 0.15 0.13 0.13 0.11 0.12 0.12 0.10 0.07 0.10 0.11 0.12 0.12 0.15 0.18 0.17 0.11 0.11
0.61 0.43 0.29 0.23 0.08 0.04 0.05 0.05 0.05 0.05 0.08 0.08 0.09 0.12 0.08 0.04 0.04 0.06 0.11 0.25 0.20 0.20 0.23 0.26 0.23 0.24 0.23 0.27 0.26 0.24 0.21 0.17 0.11 0.11 0.16 0.12 0.12 0.10 0.08 0.06 0.06 0.06 0.04 0.06 0.12 0.16 0.14 0.15 0.16 0.14 0.09 0.08 0.10 0.11
0.37 0.22 0.16 0.12 0.06 0.04 0.04 0.03 0.04 0.05 0.05 0.09 0.10 0.08 0.05 0.06 0.05 0.09 0.16 0.25 0.21 0.23 0.25 0.26 0.24 0.18 0.17 0.17 0.16 0.14 0.14 0.12 0.07 0.06 0.08 0.06 0.08 0.08 0.07 0.06 0.05 0.05 0.05 0.10 0.18 0.17 0.11 0.06 0.06 0.06 0.07 0.08 0.13 0.17
0.19 0.11 0.05 0.06 0.09 0.11 0.10 0.06 0.07 0.10 0.12 0.15 0.11 0.10 0.14 0.12 0.10 0.17 0.18 0.20 0.20 0.26 0.23 0.20 0.15 0.13 0.14 0.12 0.10 0.08 0.04 0.02 0.02 0.03 0.02 0.03 0.04 0.07 0.16 0.23 0.22 0.18 0.11 0.13 0.15 0.17 0.18 0.15 0.13 0.12 0.13 0.11 0.12 0.21
0.07 0.03 0.05 0.08 0.13 0.15 0.15 0.13 0.15 0.18 0.19 0.19 0.18 0.16 0.20 0.15 0.19 0.25 0.26 0.28 0.21 0.16 0.10 0.08 0.05 0.04 0.05 0.06 0.05 0.04 0.02 0.01 0.02 0.02 0.02 0.07 0.09 0.11 0.11 0.12 0.14 0.11 0.10 0.11 0.14 0.16 0.20 0.22 0.20 0.18 0.18 0.19 0.19 0.19
0.10 0.11 0.11 0.14 0.13 0.14 0.18 0.20 0.21 0.22 0.22 0.22 0.16 0.15 0.16 0.16 0.27 0.27 0.27 0.19 0.14 0.07 0.05 0.06 0.08 0.04 0.03 0.01 0.01 0.04 0.06 0.07 0.06 0.04 0.03 0.05 0.13 0.13 0.10 0.09 0.09 0.10 0.09 0.08 0.09 0.15 0.20 0.22 0.20 0.19 0.24 0.27 0.21 0.24
0.07 0.08 0.08 0.04 0.07 0.11 0.13 0.10 0.12 0.09 0.06 0.06 0.05 0.07 0.07 0.17 0.28 0.22 0.14 0.10 0.07 0.08 0.09 0.07 0.07 0.05 0.05 0.05 0.04 0.05 0.11 0.09 0.11 0.17 0.16 0.13 0.13 0.11 0.09 0.09 0.08 0.08 0.09 0.11 0.10 0.07 0.11 0.14 0.15 0.22 0.25 0.22 0.27 0.32
0.03 0.04 0.03 0.04 0.07 0.09 0.07 0.06 0.08 0.07 0.04 0.02 0.02 0.05 0.11 0.14 0.16 0.12 0.10 0.13 0.08 0.07 0.05 0.03 0.04 0.07 0.07 0.08 0.10 0.11 0.14 0.16 0.14 0.15 0.15 0.14 0.12 0.11 0.10 0.07 0.07 0.08 0.09 0.11 0.10 0.10 0.13 0.16 0.21 0.25 0.24 0.22 0.22 0.21
0.03 0.04 0.04 0.05 0.09 0.08 0.11 0.14 0.12 0.09 0.06 0.04 0.06 0.04 0.08 0.07 0.10 0.16 0.13 0.09 0.05 0.05 0.08 0.10 0.11 0.14 0.18 0.18 0.19 0.19 0.17 0.16 0.14 0.13 0.13 0.13 0.12 0.10 0.07 0.06 0.08 0.09 0.09 0.08 0.08 0.11 0.12 0.13 0.15 0.13 0.14 0.12 0.12 0.12
0.03 0.04 0.05 0.05 0.06 0.06 0.05 0.09 0.06 0.05 0.05 0.06 0.09 0.08 0.09 0.12 0.24 0.27 0.17 0.12 0.15 0.16 0.18 0.20 0.21 0.23 0.25 0.21 0.19 0.17 0.14 0.12 0.11 0.10 0.09 0.08 0.06 0.05 0.04 0.05 0.07 0.08 0.09 0.09 0.09 0.10 0.09 0.08 0.09 0.10 0.11 0.11 0.10 0.09

GFSWCAN_prec_precacc_069.txt.gz
Total_Precipitation_Accumulation
1.09 0.80 0.58 0.65 0.78 0.55 0.44 0.39 0.46 0.44 0.46 0.48 0.40 0.53 0.42 0.36 0.49 0.47 0.41 0.73 0.89 0.61 0.21 0.26 0.12 0.05 0.01 0.03 0.16 0.15 0.08 0.12 0.21 0.28 0.15 0.07 0.02 0.00 0.01 0.03 0.05 0.03 0.03 0.02 0.03 0.06 0.02 0.00 0.01 0.06 0.05 0.02 0.04 0.02
1.19 0.89 0.57 0.54 0.66 0.52 0.42 0.38 0.44 0.41 0.40 0.45 0.39 0.46 0.40 0.32 0.48 0.43 0.43 0.79 0.83 1.01 0.38 0.21 0.22 0.08 0.02 0.01 0.03 0.15 0.05 0.01 0.07 0.12 0.12 0.10 0.06 0.02 0.00 0.01 0.01 0.03 0.03 0.04 0.03 0.02 0.00 0.00 0.01 0.01 0.02 0.03 0.01 0.02
1.10 0.84 0.72 0.63 0.54 0.50 0.39 0.35 0.42 0.39 0.37 0.42 0.37 0.40 0.37 0.37 0.50 0.35 0.37 0.75 1.25 0.78 0.85 0.28 0.26 0.19 0.09 0.02 0.03 0.09 0.05 0.04 0.04 0.07 0.15 0.13 0.16 0.07 0.05 0.02 0.01 0.03 0.01 0.01 0.02 0.00 0.00 0.01 0.01 0.00 0.01 0.05 0.07 0.13
1.00 0.83 0.78 0.78 0.56 0.41 0.30 0.34 0.42 0.41 0.38 0.36 0.36 0.37 0.40 0.48 0.51 0.31 0.38 0.79 1.61 1.06 1.16 0.56 0.19 0.22 0.20 0.08 0.06 0.05 0.05 0.05 0.14 0.17 0.21 0.19 0.19 0.09 0.08 0.04 0.04 0.05 0.06 0.04 0.03 0.01 0.02 0.02 0.03 0.09 0.18 0.26 0.24 0.18
0.80 0.83 0.86 0.72 0.51 0.36 0.31 0.35 0.45 0.46 0.45 0.38 0.42 0.45 0.57 0.66 0.53 0.35 0.51 0.76 1.22 1.22 0.90 0.77 0.47 0.15 0.30 0.26 0.23 0.11 0.06 0.11 0.21 0.22 0.15 0.05 0.02 0.02 0.03 0.04 0.09 0.03 0.01 0.04 0.04 0.06 0.11 0.12 0.23 0.42 0.32 0.21 0.21 0.15
0.70 0.71 0.70 0.64 0.50 0.47 0.42 0.45 0.50 0.50 0.43 0.41 0.48 0.62 0.73 0.62 0.58 0.70 0.98 0.72 0.71 0.94 1.38 1.03 0.60 0.25 0.39 0.48 0.38 0.47 0.16 0.21 0.22 0.17 0.08 0.03 0.01 0.05 0.10 0.05 0.01 0.00 0.00 0.04 0.06 0.05 0.15 0.27 0.25 0.14 0.13 0.10 0.05 0.01
0.61 0.58 0.59 0.62 0.54 0.63 0.72 0.68 0.62 0.47 0.50 0.49 0.61 0.65 0.51 0.76 0.91 1.25 0.95 0.67 0.49 0.84 1.36 1.28 0.75 0.32 0.47 0.54 0.38 0.61 0.41 0.41 0.32 0.24 0.16 0.09 0.06 0.20 0.24 0.10 0.01 0.00 0.02 0.02 0.03 0.09 0.13 0.13 0.11 0.06 0.02 0.00 0.00 0.00
0.64 0.51 0.47 0.56 0.53 0.53 0.71 0.80 0.66 0.59 0.61 0.54 0.52 0.51 0.79 1.64 1.49 1.15 0.75 1.03 0.85 0.87 1.10 1.27 0.82 0.62 0.58 0.69 0.44 0.35 0.39 0.55 0.41 0.32 0.20 0.14 0.14 0.18 0.23 0.04 0.00 0.00 0.00 0.01 0.01 0.03 0.08 0.06 0.01 0.00 0.00 0.00 0.01 0.06
0.40 0.33 0.37 0.43 0.39 0.37 0.38 0.54 0.67 0.67 0.70 0.78 0.89 1.10 1.62 1.86 1.34 0.98 1.11 1.69 1.50 1.57 1.38 0.78 0.62 0.82 0.80 0.66 0.53 0.45 0.37 0.42 0.57 0.41 0.29 0.21 0.20 0.19 0.06 0.00 0.00 0.01 0.01 0.01 0.00 0.00 0.00 0.01 0.01 0.01 0.02 0.06 0.13 0.13
0.35 0.31 0.36 0.35 0.26 0.20 0.21 0.31 0.57 0.86 1.41 1.86 2.02 2.06 2.16 1.69 1.36 1.24 1.63 1.88 1.74 1.35 1.00 0.57 0.46 0.78 0.81 0.48 0.62 0.59 0.73 0.41 0.31 0.22 0.29 0.31 0.21 0.12 0.08 0.09 0.08 0.05 0.02 0.02 0.02 0.02 0.02 0.02 0.02 0.06 0.12 0.13 0.09 0.04
0.41 0.39 0.31 0.25 0.20 0.15 0.14 0.22 0.56 1.24 2.13 2.64 2.66 2.09 1.63 1.72 1.67 1.52 1.63 1.34 0.92 0.49 0.33 0.35 0.42 0.66 0.73 0.54 0.59 0.67 0.69 0.64 0.40 0.18 0.17 0.16 0.09 0.04 0.04 0.05 0.09 0.13 0.12 0.08 0.06 0.06 0.08 0.15 0.24 0.19 0.09 0.05 0.04 0.06
0.47 0.38 0.27 0.22 0.21 0.22 0.25 0.46 0.74 0.94 1.55 2.03 1.69 1.47 1.88 2.04 1.74 1.44 1.18 0.81 0.34 0.13 0.07 0.13 0.50 0.72 0.59 0.44 0.60 0.84 0.60 0.49 0.39 0.19 0.28 0.20 0.05 0.03 0.03 0.05 0.07 0.04 0.03 0.06 0.13 0.21 0.24 0.21 0.16 0.17 0.20 0.24 0.31 0.36
0.51 0.35 0.25 0.24 0.26 0.40 0.49 0.51 0.56 0.88 1.21 1.29 1.37 2.02 2.18 2.09 1.68 1.13 0.55 0.29 0.14 0.06 0.06 0.13 0.34 0.43 0.33 0.32 0.56 0.65 0.71 0.59 0.34 0.36 0.30 0.17 0.09 0.10 0.10 0.07 0.05 0.04 0.08 0.15 0.14 0.10 0.11 0.14 0.17 0.20 0.27 0.33 0.29 0.27
0.48 0.39 0.35 0.38 0.36 0.43 0.53 0.63 0.83 0.91 0.80 0.98 1.47 1.72 1.45 1.19 0.72 0.42 0.17 0.06 0.06 0.05 0.08 0.09 0.14 0.17 0.22 0.31 0.45 0.56 0.62 0.40 0.50 0.36 0.27 0.34 0.45 0.31 0.10 0.04 0.04 0.07 0.09 0.11 0.16 0.18 0.18 0.18 0.20 0.22 0.19 0.18 0.14 0.13
0.44 0.42 0.42 0.57 0.55 0.47 0.49 0.58 0.70 0.56 0.50 0.76 0.76 0.79 0.65 0.47 0.32 0.19 0.13 0.10 0.11 0.14 0.25 0.36 0.45 0.32 0.31 0.54 0.49 0.37 0.35 0.31 0.25 0.29 0.33 0.32 0.27 0.18 0.19 0.18 0.12 0.14 0.15 0.14 0.14 0.12 0.11 0.07 0.04 0.09 0.10 0.08 0.04 0.04
0.37 0.36 0.52 0.54 0.39 0.33 0.47 0.47 0.59 0.46 0.44 0.34 0.43 0.38 0.35 0.26 0.31 0.29 0.24 0.24 0.25 0.31 0.41 0.49 0.53 0.50 0.57 0.41 0.32 0.32 0.33 0.36 0.38 0.22 0.13 0.12 0.15 0.20 0.28 0.28 0.21 0.17 0.13 0.14 0.18 0.16 0.13 0.09 0.05 0.04 0.03 0.02 0.02 0.02
0.42 0.35 0.39 0.37 0.40 0.41 0.34 0.48 0.41 0.36 0.43 0.31 0.41 0.34 0.31 0.27 0.28 0.27 0.21 0.23 0.21 0.26 0.35 0.33 0.29 0.32 0.30 0.25 0.25 0.26 0.37 0.30 0.22 0.21 0.17 0.19 0.22 0.27 0.31 0.25 0.17 0.14 0.15 0.15 0.14 0.12 0.06 0.03 0.01 0.00 0.01 0.01 0.01 0.00
0.55 0.26 0.27 0.30 0.27 0.30 0.36 0.37 0.32 0.32 0.36 0.41 0.40 0.59 0.41 0.38 0.35 0.31 0.28 0.26 0.19 0.13 0.12 0.14 0.14 0.11 0.14 0.16 0.27 0.33 0.30 0.32 0.29 0.30 0.29 0.32 0.35 0.38 0.29 0.14 0.16 0.12 0.11 0.12 0.08 0.05 0.02 0.01 0.01 0.01 0.01 0.01 0.01 0.01
0.60 0.34 0.31 0.27 0.23 0.32 0.52 0.43 0.19 0.21 0.41 0.51 0.58 0.58 0.48 0.55 0.61 0.59 0.48 0.37 0.23 0.12 0.11 0.14 0.17 0.19 0.24 0.28 0.37 0.38 0.41 0.38 0.39 0.43 0.46 0.48 0.45 0.34 0.26 0.16 0.12 0.10 0.08 0.07 0.05 0.04 0.05 0.04 0.03 0.01 0.01 0.01 0.04 0.05
1.07 0.97 0.65 0.57 0.37 0.40 0.30 0.26 0.11 0.13 0.35 0.42 0.50 0.44 0.39 0.56 0.51 0.43 0.33 0.27 0.22 0.21 0.27 0.27 0.35 0.41 0.44 0.47 0.48 0.51 0.49 0.42 0.31 0.24 0.38 0.50 0.54 0.34 0.30 0.17 0.14 0.10 0.05 0.05 0.06 0.05 0.04 0.03 0.04 0.04 0.07 0.13 0.17 0.13
0.99 1.31 0.99 0.59 0.60 0.37 0.25 0.22 0.19 0.18 0.24 0.31 0.38 0.19 0.35 0.24 0.16 0.13 0.11 0.07 0.09 0.22 0.33 0.46 0.47 0.46 0.48 0.53 0.52 0.45 0.41 0.33 0.33 0.21 0.22 0.29 0.40 0.21 0.20 0.20 0.13 0.10 0.09 0.09 0.08 0.08 0.08 0.10 0.10 0.09 0.11 0.14 0.17 0.20
0.52 0.61 0.71 0.47 0.34 0.19 0.22 0.26 0.19 0.20 0.17 0.30 0.25 0.14 0.19 0.18 0.12 0.09 0.04 0.07 0.22 0.44 0.46 0.43 0.42 0.38 0.34 0.41 0.48 0.43 0.49 0.33 0.27 0.24 0.25 0.18 0.17 0.16 0.18 0.20 0.13 0.13 0.13 0.14 0.13 0.13 0.12 0.11 0.12 0.12 0.11 0.10 0.12 0.15
0.33 0.45 0.57 0.45 0.24 0.09 0.16 0.09 0.10 0.21 0.18 0.23 0.17 0.12 0.16 0.15 0.13 0.05 0.10 0.17 0.31 0.47 0.49 0.37 0.36 0.34 0.31 0.38 0.29 0.31 0.43 0.30 0.27 0.31 0.30 0.26 0.24 0.23 0.18 0.18 0.17 0.15 0.14 0.14 0.13 0.13 0.12 0.13 0.12 0.11 0.11 0.13 0.12 0.10
0.34 0.42 0.46 0.40 0.21 0.13 0.06 0.08 0.09 0.15 0.13 0.12 0.10 0.14 0.15 0.10 0.04 0.04 0.12 0.22 0.35 0.28 0.25 0.32 0.34 0.34 0.31 0.25 0.23 0.29 0.41 0.29 0.24 0.25 0.30 0.20 0.12 0.15 0.13 0.13 0.11 0.12 0.12 0.10 0.07 0.10 0.11 0.12 0.12 0.15 0.18 0.17 0.11 0.11
0.61 0.43 0.29 0.23 0.08 0.04 0.05 0.05 0.05 0.05 0.09 0.08 0.10 0.12 0.09 0.04 0.04 0.06 0.12 0.28 0.23 0.23 0.27 0.30 0.26 0.27 0.27 0.31 0.30 0.27 0.24 0.19 0.12 0.11 0.16 0.12 0.12 0.10 0.08 0.06 0.06 0.06 0.04 0.06 0.12 0.16 0.14 0.15 0.16 0.14 0.09 0.08 0.10 0.11
0.37 0.22 0.16 0.12 0.06 0.04 0.04 0.03 0.04 0.05 0.05 0.09 0.10 0.08 0.05 0.06 0.05 0.10 0.17 0.26 0.23 0.25 0.28 0.30 0.27 0.21 0.21 0.20 0.18 0.15 0.14 0.12 0.07 0.06 0.08 0.06 0.08 0.08 0.07 0.06 0.05 0.05 0.05 0.10 0.18 0.17 0.11 0.06 0.06 0.06 0.07 0.08 0.13 0.17
0.19 0.11 0.05 0.06 0.09 0.11 0.10 0.06 0.07 0.10 0.12 0.15 0.11 0.10 0.14 0.12 0.10 0.18 0.19 0.21 0.22 0.28 0.25 0.23 0.17 0.15 0.15 0.13 0.10 0.08 0.04 0.02 0.02 0.03 0.02 0.03 0.04 0.07 0.16 0.23 0.22 0.18 0.11 0.13 0.15 0.17 0.18 0.15 0.13 0.12 0.13 0.11 0.12 0.21
0.07 0.03 0.05 0.08 0.13 0.15 0.15 0.13 0.16 0.18 0.19 0.20 0.18 0.16 0.20 0.16 0.20 0.27 0.27 0.30 0.22 0.17 0.11 0.09 0.06 0.04 0.05 0.06 0.05 0.04 0.02 0.01 0.02 0.02 0.02 0.07 0.09 0.11 0.11 0.12 0.14 0.11 0.10 0.11 0.14 0.16 0.20 0.22 0.20 0.18 0.18 0.19 0.19 0.19
0.10 0.11 0.11 0.14 0.13 0.14 0.18 0.20 0.22 0.23 0.22 0.22 0.17 0.15 0.16 0.17 0.29 0.29 0.28 0.20 0.15 0.09 0.06 0.06 0.08 0.04 0.03 0.01 0.01 0.04 0.06 0.07 0.06 0.04 0.03 0.05 0.13 0.13 0.10 0.09 0.09 0.10 0.09 0.09 0.09 0.15 0.20 0.22 0.20 0.19 0.24 0.27 0.21 0.24
0.07 0.08 0.08 0.04 0.07 0.12 0.14 0.11 0.12 0.10 0.07 0.06 0.06 0.08 0.08 0.18 0.30 0.23 0.16 0.12 0.09 0.09 0.09 0.07 0.07 0.05 0.05 0.05 0.04 0.05 0.11 0.09 0.11 0.17 0.16 0.13 0.13 0.12 0.09 0.09 0.08 0.08 0.10 0.12 0.10 0.07 0.11 0.14 0.15 0.22 0.25 0.22 0.27 0.32
0.03 0.04 0.03 0.04 0.08 0.10 0.07 0.06 0.09 0.07 0.04 0.02 0.02 0.05 0.11 0.15 0.17 0.13 0.11 0.14 0.09 0.07 0.05 0.03 0.04 0.07 0.07 0.08 0.10 0.11 0.14 0.16 0.14 0.15 0.15 0.14 0.12 0.11 0.10 0.07 0.07 0.08 0.09 0.11 0.10 0.10 0.13 0.16 0.21 0.25 0.24 0.22 0.22 0.21
0.03 0.04 0.04 0.05 0.09 0.08 0.11 0.14 0.12 0.10 0.06 0.05 0.07 0.05 0.08 0.08 0.10 0.17 0.13 0.10 0.06 0.05 0.08 0.10 0.11 0.14 0.18 0.18 0.19 0.19 0.17 0.16 0.14 0.13 0.13 0.13 0.12 0.10 0.07 0.06 0.08 0.09 0.09 0.08 0.08 0.11 0.12 0.13 0.15 0.13 0.14 0.12 0.12 0.12
0.03 0.04 0.05 0.05 0.06 0.07 0.06 0.10 0.06 0.05 0.05 0.06 0.09 0.09 0.09 0.12 0.24 0.28 0.17 0.12 0.15 0.17 0.18 0.20 0.21 0.23 0.25 0.21 0.19 0.17 0.14 0.12 0.11 0.10 0.09 0.08 0.06 0.05 0.04 0.05 0.07 0.08 0.09 0.09 0.09 0.10 0.09 0.08 0.09 0.10 0.11 0.11 0.10 0.09